Temp
8 8 7 7 5 5 4 3 3 2 2 1 1 0 0 0 0 -0 -0 -1 -1 -1 -2 -2 -3 -4 -3 -3 -4 -4 -4 -4 -4 -5 -5 -5 -6 -6 -6 -7 -7 -7 -7
6 7 6 5 5 4 4 3 3 2 1 1 0 -0 -0 -0 -0 -0 -1 -1 -2 -2 -2 -3 -4 -3 -4 -4 -4 -5 -5 -5 -5 -6 -6 -7 -7 -7 -8 -7 -7 -7 -7
6 5 5 5 5 4 4 3 3 2 1 0 -0 -0 -0 -0 -1 -2 -2 -2 -2 -3 -3 -3 -4 -5 -5 -5 -5 -5 -6 -7 -8 -8 -8 -8 -8 -8 -8 -8 -8 -8 -7
6 5 5 5 5 4 4 3 2 2 1 0 -0 -1 -1 -1 -1 -2 -2 -3 -3 -3 -4 -4 -5 -5 -5 -5 -6 -7 -8 -8 -9 -9 -9 -9 -9 -9 -9 -9 -8 -8 -8
6 5 5 6 5 4 3 3 2 1 1 -0 -0 -1 -1 -1 -2 -2 -3 -3 -4 -4 -5 -5 -5 -5 -6 -6 -7 -8 -9 -9 -10 -10 -10 -10 -9 -9 -9 -9 -9 -9 -8
6 5 6 5 4 4 3 2 2 1 1 0 -0 -1 -1 -2 -2 -3 -3 -4 -4 -5 -5 -5 -6 -6 -6 -7 -8 -9 -9 -10 -10 -10 -10 -10 -10 -10 -10 -10 -10 -10 -10
6 5 4 4 3 2 2 2 1 1 0 0 -1 -1 -2 -2 -3 -3 -4 -4 -5 -6 -6 -6 -7 -7 -7 -8 -8 -9 -9 -10 -10 -10 -10 -10 -10 -11 -11 -11 -11 -11 -10
5 4 4 2 2 2 1 1 0 0 -0 -1 -1 -2 -2 -3 -3 -4 -4 -4 -5 -6 -7 -7 -8 -8 -8 -8 -9 -9 -9 -10 -10 -10 -10 -10 -11 -11 -11 -11 -11 -11 -10
4 2 -0 1 1 1 0 0 -0 -1 -1 -1 -2 -2 -2 -3 -3 -4 -5 -5 -6 -7 -7 -8 -8 -8 -9 -9 -9 -9 -9 -9 -11 -11 -10 -11 -11 -11 -10 -10 -10 -10 -10
1 0 0 0 1 1 -1 -1 -2 -2 -2 -2 -2 -2 -3 -3 -4 -4 -5 -6 -6 -7 -8 -8 -9 -9 -9 -9 -9 -9 -10 -10 -10 -11 -11 -11 -11 -10 -10 -10 -9 -10 -10
-1 -2 -1 0 -0 -2 -3 -3 -3 -3 -3 -3 -3 -3 -3 -4 -5 -5 -5 -6 -7 -7 -8 -8 -9 -9 -9 -9 -9 -10 -10 -11 -11 -12 -12 -11 -11 -11 -10 -10 -10 -10 -9
-1 -1 1 0 -1 -3 -3 -3 -3 -3 -3 -3 -3 -4 -4 -4 -5 -5 -6 -6 -7 -7 -8 -8 -9 -9 -9 -9 -9 -10 -11 -11 -12 -12 -12 -12 -11 -11 -11 -10 -10 -9 -9
-2 1 0 -2 -3 -3 -3 -4 -4 -4 -4 -4 -4 -4 -4 -5 -5 -6 -6 -6 -7 -7 -8 -9 -9 -9 -9 -10 -10 -11 -11 -11 -12 -12 -12 -12 -12 -11 -11 -10 -10 -9 -8
0 -0 -3 -2 -2 -3 -4 -4 -4 -4 -5 -4 -4 -4 -5 -5 -5 -6 -6 -7 -7 -8 -8 -9 -9 -9 -10 -10 -10 -10 -11 -11 -11 -12 -12 -12 -12 -12 -11 -11 -10 -9 -8
-1 -1 -1 -2 -2 -3 -4 -4 -4 -5 -6 -6 -5 -5 -5 -5 -6 -6 -6 -7 -8 -8 -8 -9 -9 -9 -10 -10 -10 -10 -10 -11 -11 -12 -12 -13 -12 -12 -12 -11 -11 -10 -10
-1 -1 -2 -2 -3 -4 -4 -5 -4 -5 -5 -5 -5 -5 -5 -6 -6 -6 -7 -7 -8 -8 -9 -9 -9 -9 -9 -10 -10 -10 -10 -11 -11 -12 -12 -13 -13 -13 -12 -11 -11 -11 -10
-2 -2 -2 -3 -4 -5 -5 -5 -6 -5 -5 -5 -5 -5 -6 -6 -6 -7 -7 -8 -8 -9 -9 -9 -9 -9 -9 -10 -10 -10 -10 -11 -11 -12 -13 -13 -13 -13 -12 -12 -12 -11 -11
-3 -3 -3 -4 -5 -5 -5 -6 -7 -7 -6 -5 -6 -6 -6 -6 -6 -7 -7 -8 -9 -9 -9 -9 -10 -9 -9 -9 -10 -10 -10 -11 -12 -12 -13 -13 -13 -13 -13 -13 -12 -12 -12
-3 -3 -4 -4 -5 -5 -5 -6 -6 -6 -6 -6 -6 -6 -6 -6 -6 -7 -8 -8 -9 -9 -9 -9 -9 -9 -9 -9 -9 -10 -10 -12 -12 -12 -13 -13 -13 -13 -13 -13 -13 -12 -12
-4 -4 -4 -4 -5 -5 -5 -6 -6 -6 -6 -6 -6 -6 -6 -7 -6 -6 -7 -7 -8 -8 -9 -9 -9 -9 -9 -9 -9 -10 -11 -11 -12 -12 -12 -13 -13 -13 -13 -13 -13 -13 -13
-4 -4 -4 -4 -5 -5 -5 -6 -6 -6 -6 -6 -6 -6 -7 -7 -7 -6 -6 -7 -7 -7 -8 -8 -8 -8 -9 -9 -9 -10 -10 -11 -12 -12 -13 -13 -13 -13 -13 -13 -13 -13 -13
-5 -5 -5 -5 -5 -5 -6 -6 -6 -7 -7 -7 -7 -7 -7 -7 -7 -7 -6 -7 -7 -7 -7 -8 -8 -8 -8 -8 -9 -9 -10 -11 -11 -12 -12 -13 -13 -13 -13 -13 -13 -13 -14
-6 -6 -6 -6 -6 -6 -6 -6 -7 -7 -7 -7 -7 -7 -7 -7 -7 -6 -6 -7 -7 -7 -8 -8 -8 -8 -8 -8 -9 -9 -9 -10 -10 -11 -11 -11 -12 -13 -14 -14 -14 -14 -14
-7 -7 -7 -6 -6 -6 -7 -7 -7 -7 -7 -7 -7 -7 -7 -7 -7 -7 -7 -7 -7 -7 -7 -7 -8 -8 -8 -8 -9 -9 -9 -9 -10 -10 -11 -11 -11 -12 -13 -14 -14 -14 -14
-8 -8 -8 -8 -7 -6 -7 -7 -8 -8 -8 -8 -8 -8 -8 -8 -8 -8 -8 -8 -8 -8 -8 -8 -8 -8 -8 -8 -8 -8 -9 -9 -9 -10 -10 -11 -11 -12 -12 -13 -13 -13 -14
-9 -9 -8 -8 -8 -7 -8 -8 -9 -10 -10 -10 -10 -10 -10 -10 -9 -9 -9 -8 -9 -8 -8 -9 -8 -8 -8 -8 -8 -8 -8 -9 -10 -10 -10 -11 -11 -11 -12 -13 -13 -13 -14
Height
1523 1525 1526 1527 1528 1529 1530 1530 1529 1529 1527 1526 1524 1523 1521 1519 1518 1516 1514 1513 1511 1508 1507 1504 1504 1503 1502 1500 1500 1499 1497 1495 1488 1484 1482 1480 1475 1471 1468 1465 1462 1459 1455
1521 1523 1523 1524 1525 1526 1527 1527 1526 1526 1524 1522 1521 1519 1517 1516 1513 1511 1509 1507 1506 1505 1505 1502 1501 1500 1498 1496 1495 1493 1490 1487 1484 1477 1474 1471 1468 1465 1463 1460 1456 1454 1450
1521 1522 1522 1522 1524 1524 1523 1523 1524 1522 1521 1519 1518 1516 1514 1512 1509 1506 1505 1503 1500 1500 1499 1498 1498 1496 1494 1491 1489 1487 1484 1481 1478 1473 1467 1465 1463 1461 1457 1455 1451 1447 1444
1520 1520 1519 1520 1520 1522 1521 1519 1520 1520 1517 1514 1513 1512 1510 1508 1505 1502 1501 1499 1499 1495 1494 1494 1494 1492 1489 1487 1484 1481 1478 1475 1472 1469 1465 1461 1459 1456 1453 1450 1445 1442 1438
1516 1516 1517 1517 1516 1516 1517 1516 1515 1515 1513 1511 1509 1506 1505 1503 1499 1497 1498 1498 1495 1492 1490 1491 1491 1487 1484 1481 1479 1476 1473 1470 1467 1464 1460 1457 1454 1451 1449 1445 1441 1437 1433
1513 1515 1515 1516 1517 1515 1514 1512 1511 1510 1509 1508 1505 1503 1501 1499 1497 1494 1493 1494 1492 1491 1489 1487 1486 1484 1480 1476 1474 1471 1469 1465 1463 1460 1456 1453 1450 1448 1444 1441 1438 1434 1429
1510 1511 1513 1513 1510 1512 1513 1509 1506 1506 1506 1504 1502 1499 1496 1493 1492 1491 1491 1489 1489 1487 1484 1482 1481 1480 1475 1473 1471 1468 1465 1462 1460 1458 1453 1449 1445 1443 1440 1436 1433 1430 1426
1506 1509 1509 1507 1509 1508 1507 1505 1505 1501 1500 1499 1497 1494 1492 1491 1489 1487 1486 1485 1484 1482 1480 1478 1477 1475 1471 1468 1466 1462 1459 1456 1455 1453 1449 1444 1441 1438 1435 1432 1429 1424 1421
1502 1502 1506 1510 1509 1506 1502 1499 1498 1496 1495 1494 1491 1489 1487 1484 1484 1484 1484 1480 1480 1478 1476 1475 1473 1471 1467 1465 1461 1457 1454 1451 1449 1446 1443 1438 1436 1434 1431 1428 1424 1422 1417
1497 1501 1501 1506 1505 1500 1500 1496 1493 1491 1489 1488 1487 1488 1483 1477 1480 1479 1478 1478 1475 1474 1473 1471 1469 1466 1463 1461 1457 1453 1449 1447 1443 1439 1437 1434 1432 1430 1428 1424 1421 1417 1415
1497 1500 1501 1499 1496 1494 1493 1491 1490 1487 1485 1482 1482 1482 1480 1477 1474 1475 1475 1473 1471 1469 1468 1467 1466 1462 1460 1457 1453 1450 1447 1443 1441 1437 1434 1432 1429 1427 1424 1422 1419 1416 1412
1496 1498 1496 1492 1489 1488 1487 1485 1483 1480 1480 1479 1476 1475 1473 1472 1470 1470 1470 1468 1466 1465 1464 1463 1461 1459 1456 1453 1450 1448 1445 1442 1438 1436 1433 1430 1427 1424 1421 1418 1415 1411 1407
1494 1492 1489 1487 1487 1485 1482 1479 1477 1475 1474 1473 1472 1470 1468 1468 1467 1465 1465 1464 1463 1461 1460 1458 1457 1455 1452 1449 1447 1445 1442 1440 1437 1434 1431 1428 1425 1422 1419 1416 1412 1408 1404
1487 1486 1485 1483 1482 1479 1477 1476 1473 1471 1470 1468 1466 1465 1464 1464 1464 1461 1459 1459 1458 1457 1456 1454 1452 1451 1449 1447 1445 1443 1441 1439 1436 1432 1429 1426 1423 1420 1417 1414 1410 1406 1402
1483 1482 1481 1479 1477 1476 1474 1472 1469 1467 1464 1463 1462 1461 1460 1459 1459 1458 1455 1454 1453 1452 1451 1450 1449 1447 1446 1445 1443 1441 1439 1436 1434 1430 1427 1424 1421 1418 1415 1412 1410 1407 1403
1481 1479 1477 1476 1474 1472 1469 1468 1465 1462 1460 1458 1457 1456 1455 1454 1453 1452 1451 1450 1449 1448 1446 1445 1444 1443 1443 1441 1439 1438 1436 1434 1431 1429 1425 1423 1420 1417 1414 1411 1409 1406 1403
1477 1475 1473 1471 1469 1467 1465 1463 1458 1455 1454 1452 1450 1449 1448 1447 1446 1445 1444 1443 1442 1441 1440 1439 1439 1439 1439 1438 1436 1435 1433 1431 1428 1425 1423 1421 1419 1416 1413 1410 1408 1406 1403
1473 1471 1469 1467 1465 1463 1460 1457 1454 1450 1446 1443 1443 1442 1441 1440 1439 1438 1438 1437 1435 1434 1434 1433 1433 1434 1434 1433 1433 1432 1430 1428 1425 1423 1421 1419 1417 1415 1412 1410 1407 1405 1403
1469 1466 1464 1461 1458 1456 1454 1451 1448 1444 1441 1438 1436 1435 1434 1432 1431 1431 1431 1429 1428 1428 1428 1427 1428 1429 1429 1429 1428 1427 1426 1423 1422 1420 1418 1417 1415 1413 1411 1410 1407 1405 1403
1463 1460 1458 1455 1452 1449 1447 1444 1440 1438 1435 1433 1430 1428 1427 1425 1422 1422 1422 1422 1422 1421 1422 1422 1422 1423 1424 1424 1423 1422 1421 1420 1418 1417 1416 1414 1413 1411 1410 1409 1407 1404 1402
1456 1453 1450 1447 1444 1441 1439 1436 1433 1431 1428 1425 1423 1421 1420 1418 1416 1414 1414 1415 1415 1414 1415 1415 1415 1416 1417 1418 1417 1417 1416 1415 1415 1413 1412 1411 1409 1409 1408 1407 1406 1404 1401
1448 1445 1442 1438 1436 1433 1430 1428 1425 1422 1419 1417 1415 1414 1413 1411 1409 1407 1406 1407 1407 1407 1408 1408 1408 1409 1409 1410 1410 1410 1410 1410 1410 1409 1408 1407 1406 1406 1405 1405 1404 1402 1400
1440 1436 1433 1429 1426 1423 1422 1420 1417 1415 1412 1410 1409 1407 1406 1404 1401 1399 1398 1399 1400 1400 1400 1401 1401 1401 1402 1402 1403 1404 1404 1404 1404 1404 1404 1403 1403 1402 1402 1402 1402 1401 1399
1433 1429 1425 1420 1415 1413 1413 1412 1410 1408 1406 1404 1402 1401 1399 1398 1396 1394 1393 1393 1393 1393 1393 1393 1393 1394 1394 1394 1395 1397 1398 1398 1399 1399 1400 1399 1399 1399 1399 1399 1399 1398 1398
1425 1421 1417 1413 1411 1407 1404 1403 1402 1402 1401 1399 1397 1396 1394 1392 1391 1390 1389 1387 1387 1386 1386 1386 1385 1386 1386 1386 1387 1388 1390 1392 1392 1393 1395 1395 1395 1395 1395 1396 1396 1396 1396
1420 1415 1411 1407 1404 1400 1397 1395 1395 1396 1395 1393 1392 1390 1388 1385 1384 1383 1382 1381 1380 1379 1379 1378 1377 1378 1378 1378 1379 1380 1382 1384 1386 1388 1389 1390 1390 1391 1392 1392 1393 1393 1393
Wind_Speed
21 14 11 8 11 10 7 8 11 14 13 14 15 16 17 16 17 16 18 19 22 25 20 16 17 13 15 15 17 21 23 24 29 31 31 29 31 36 41 33 32 31 29
20 15 9 12 13 8 9 9 11 14 14 15 16 17 17 17 19 24 24 18 18 15 13 11 12 14 13 17 21 22 26 29 31 34 33 34 34 35 29 28 28 29 29
17 14 14 14 12 13 11 12 14 15 15 17 17 17 18 18 19 18 13 16 15 13 15 14 14 13 19 21 23 28 29 29 24 28 35 34 28 26 28 27 28 28 26
16 18 13 13 14 13 12 14 16 17 17 18 16 17 18 19 19 17 11 11 16 14 14 13 14 18 20 23 26 31 26 24 25 25 27 29 28 28 25 28 30 29 31
21 15 13 16 14 14 15 16 17 18 20 18 16 17 18 17 18 14 16 16 12 11 11 14 16 19 23 25 23 25 24 26 27 23 26 27 27 25 26 28 30 30 29
14 17 16 15 13 13 17 17 19 19 18 18 19 17 17 18 20 17 15 13 11 12 14 16 19 16 17 19 20 19 24 27 24 25 29 30 31 27 27 27 29 29 30
20 16 12 13 10 15 16 16 17 17 19 21 19 18 17 17 19 16 14 14 14 11 14 16 17 12 18 19 22 25 26 19 19 23 26 25 22 24 30 33 33 30 30
14 11 12 10 11 13 18 19 16 17 19 20 19 18 17 18 17 18 16 17 16 13 15 18 15 14 21 23 23 26 23 19 15 17 23 26 28 32 22 21 23 25 24
11 7 4 10 16 18 15 15 18 19 19 19 18 16 14 17 18 19 17 17 17 16 15 15 14 18 22 23 25 24 22 21 14 20 26 21 17 16 18 22 23 22 23
4 4 5 13 19 19 16 19 20 18 17 15 17 17 16 16 19 20 19 19 19 16 13 14 15 18 20 23 24 22 22 21 24 22 18 18 15 16 18 19 19 23 23
4 6 11 16 16 16 18 17 17 19 16 17 21 23 20 18 21 21 20 18 19 18 16 14 12 20 22 22 20 19 18 22 19 20 22 17 16 17 17 14 16 20 23
7 9 15 17 16 12 17 20 21 16 17 19 20 20 20 19 20 20 19 16 17 17 17 16 15 17 19 16 15 15 16 17 19 23 18 17 18 18 18 18 19 21 25
8 16 17 13 13 17 19 20 19 16 16 17 19 21 19 17 16 20 19 16 17 17 16 16 14 18 14 14 15 16 17 19 19 24 19 20 17 17 18 19 18 19 24
15 14 11 15 16 18 17 18 15 20 17 17 19 19 20 16 16 15 14 16 18 17 16 15 18 17 11 14 14 14 16 17 18 19 23 17 17 17 17 16 20 22 21
13 14 14 15 16 17 18 15 19 23 21 19 22 19 19 21 19 19 22 23 19 16 19 21 22 12 14 15 13 12 15 17 17 19 21 16 18 18 16 14 16 19 17
14 14 15 16 16 16 15 19 23 23 21 21 20 22 26 28 27 26 23 21 22 23 24 23 20 11 14 16 14 12 15 16 19 21 15 17 17 18 14 15 16 16 17
16 16 17 17 17 17 21 22 25 25 24 22 24 23 22 26 27 25 23 21 19 20 23 22 17 11 14 15 13 12 14 17 20 15 17 13 16 16 11 14 15 16 15
17 19 20 18 18 22 21 23 23 27 28 24 24 25 24 23 23 21 20 20 22 23 23 21 17 15 15 15 14 14 18 20 17 14 16 11 14 14 13 13 11 14 14
24 24 22 22 24 26 26 27 29 28 27 29 27 25 25 25 22 19 20 23 24 23 20 21 18 16 16 18 17 17 19 18 15 12 12 12 13 12 10 14 10 9 10
24 24 25 27 29 33 29 29 30 32 29 28 28 29 26 25 27 22 22 22 22 22 23 23 21 21 19 18 20 21 20 16 13 14 13 15 12 13 7 10 13 11 9
27 28 28 32 34 30 30 28 28 31 33 28 28 27 25 25 25 30 24 23 22 22 21 21 23 22 21 22 23 24 22 17 14 15 14 12 12 11 5 9 9 13 9
27 30 31 33 33 30 28 27 30 32 31 31 28 24 23 25 25 27 31 27 25 25 24 23 24 24 24 23 23 22 20 18 16 15 13 12 12 7 5 8 7 9 11
29 30 33 37 35 29 27 26 23 25 27 27 25 23 22 23 23 26 32 26 22 20 21 22 24 26 26 27 26 25 24 24 19 16 15 13 11 7 8 7 6 6 9
33 33 32 37 36 29 27 23 21 24 22 25 24 21 18 17 17 18 18 21 20 20 21 22 23 25 28 28 29 28 27 26 21 19 16 15 12 9 8 8 6 6 5
34 33 32 32 30 33 24 18 18 20 21 19 15 14 16 18 20 18 18 18 18 19 21 22 22 23 22 24 30 28 26 23 21 19 16 13 12 11 9 9 7 5 4
24 23 23 26 26 24 15 14 17 17 16 18 19 17 17 19 21 23 25 24 23 21 20 21 23 23 23 22 21 28 28 24 23 20 18 14 12 11 9 7 6 5 4
Wind_Direction
211 216 226 225 212 228 231 249 289 294 299 296 301 298 303 305 308 296 290 298 306 304 301 290 278 285 280 291 305 305 303 301 301 302 301 303 299 300 304 299 300 300 304
217 215 228 200 218 214 242 268 280 279 294 294 299 303 302 302 291 290 298 299 305 313 303 300 299 287 295 293 303 298 290 287 293 302 300 299 306 307 308 308 305 300 303
223 225 214 213 214 230 248 268 278 283 289 289 300 301 299 299 305 294 297 286 291 286 293 290 289 301 301 302 287 290 293 299 292 294 297 300 307 307 307 308 306 304 304
215 232 213 226 232 245 261 269 281 286 286 289 301 302 299 299 290 282 277 285 290 283 286 295 304 305 293 293 296 301 306 304 304 301 300 302 307 311 313 312 313 310 307
239 216 226 232 241 256 270 278 281 282 285 292 291 298 297 296 282 276 270 295 280 289 288 293 298 292 298 299 303 310 308 313 314 307 306 310 314 313 312 310 308 312 309
242 226 232 258 255 266 274 277 288 292 292 285 291 296 289 291 294 294 290 294 286 290 300 293 292 299 300 305 306 300 310 311 310 309 310 307 303 303 305 309 309 312 313
231 229 249 248 260 276 286 287 286 290 289 288 294 289 285 285 287 293 293 304 302 298 295 290 292 293 284 288 287 295 303 305 302 304 309 308 308 308 306 305 302 300 295
223 231 244 282 276 283 283 301 300 293 287 289 287 289 283 276 282 284 282 300 301 299 288 297 292 289 283 298 306 312 313 311 306 308 296 294 297 302 305 304 303 302 300
210 239 284 280 287 298 306 290 286 286 289 284 281 281 282 281 282 284 284 294 299 301 295 294 292 292 299 308 313 317 319 322 310 292 297 301 305 309 314 309 304 305 304
241 183 281 317 313 294 296 292 292 288 283 287 280 269 266 273 278 283 284 293 299 303 291 287 288 292 296 308 314 317 321 327 325 330 337 335 326 324 318 322 322 289 290
228 332 305 300 292 288 289 295 292 289 283 281 282 284 284 284 278 281 292 294 305 292 291 294 286 289 298 307 313 320 333 333 334 338 336 325 329 322 321 313 317 307 294
357 309 292 283 287 297 279 284 291 284 285 285 283 277 279 282 282 280 287 293 307 301 295 295 279 294 312 316 321 338 341 340 340 330 329 331 325 324 327 327 324 323 335
294 286 288 307 295 280 296 307 312 308 274 284 282 278 282 281 285 279 277 288 301 296 301 302 302 319 329 337 342 334 329 337 326 330 335 323 321 325 325 326 326 333 337
277 296 300 287 296 302 308 313 301 294 301 278 282 271 275 269 273 273 283 291 290 286 302 301 312 319 320 322 321 322 318 322 323 325 319 332 329 327 325 332 341 342 340
303 300 300 307 312 312 309 308 288 298 300 288 277 276 265 260 260 270 285 290 283 283 289 289 298 307 300 309 309 310 314 318 320 311 324 333 333 329 333 342 347 343 346
300 307 310 309 310 305 307 295 296 303 302 298 293 278 272 272 276 283 277 279 268 269 271 276 283 284 291 301 308 310 311 310 302 315 328 328 329 331 337 352 346 343 346
302 303 307 310 310 307 300 304 303 298 294 289 292 286 280 275 270 276 276 281 272 266 265 271 277 270 278 290 299 300 300 296 304 310 309 324 326 334 342 350 345 344 345
301 303 300 301 289 296 304 305 303 315 313 305 288 293 290 285 281 272 276 275 264 262 266 272 273 264 269 278 288 282 283 296 303 302 310 325 326 331 340 337 338 350 351
287 294 298 293 292 302 305 306 310 311 310 308 301 291 296 294 282 269 264 263 265 267 268 270 269 270 268 271 284 280 289 296 309 318 325 318 315 321 331 338 334 338 350
281 280 285 286 290 294 298 305 305 302 296 300 304 298 297 297 268 263 260 269 271 268 264 264 260 257 259 260 268 279 284 290 300 302 296 296 300 308 327 328 338 338 341
285 284 285 284 292 292 301 301 299 299 292 285 300 295 293 290 281 269 266 267 271 270 272 268 264 265 265 260 266 272 281 276 277 284 290 287 286 306 332 323 329 333 335
290 287 286 286 292 290 292 293 298 298 294 292 293 296 295 293 286 278 260 263 270 270 273 270 268 268 265 266 268 272 278 275 278 281 287 281 286 292 295 297 312 322 332
307 303 296 288 284 280 281 295 301 305 301 299 295 297 296 297 291 291 267 267 273 271 263 265 265 265 264 266 267 269 271 275 273 272 278 283 281 271 269 276 288 294 315
298 301 305 298 273 273 279 288 297 304 311 301 295 293 295 302 303 298 294 287 287 282 279 279 279 273 266 261 262 264 268 270 264 265 271 274 271 265 261 260 256 266 302
307 309 312 311 304 292 277 277 292 301 301 295 310 306 301 296 297 300 304 301 293 288 287 286 283 281 279 277 267 263 261 262 263 261 261 266 261 256 256 259 257 262 248
324 328 313 311 313 292 263 269 287 295 299 299 299 305 299 290 286 284 282 281 280 279 281 287 286 281 279 276 277 271 262 251 254 255 256 261 260 252 241 236 247 250 227